Hermosillo, México

7:52 AM MST en Diciembre 13, 2017 (GMT -0700)
Gen Ignacio Pesqueira Garcia

Tiempo Historia de MMHO - Marzo, 2017

Change the Weather History Date:

Martes, Marzo 21, 2017

  Actual Average Record
Temperature  
Temperatura media 78 ° F -  
Temperatura máxima 97 ° F 86 ° F 104 ° F (2004)
Temperatura mínima 59 ° F 56 ° F 46 ° F (2006)
Cooling Degree Days 13    
Growing Degree Days 28 (Base 50)    
Moisture  
Punto de rocío 47 ° F    
Average Humidity 31    
Maximum Humidity 46    
Minimum Humidity 12    
Precipitación  
Precipitación 0.00 pul - - ()
Presión al nivel del mar  
Presión al nivel del mar 29.96 pul    
Viento  
Velocidad del viento 3 mph ()    
Velocidad máxima del viento 14 mph    
Max Gust Speed -    
Visibilidad 9.2 Millas    
Eventos      
Averages and records for this station are not official NWS values.
T = Trace of Precipitation, MM = Missing Value Source: Averaged Metar Reports

Daily Weather History Graph

Daily Weather History Graph

Search for Another Location

Airport or City:

Trip Planner

Search our weather history database for the weather conditions in past years. The results will help you decide how hot, cold, wet, or windy it might be!

Date:

Astronomía

Mar. 21, 2017 Salida Puesta
Hora real 6:26 AM MST 6:36 PM MST
Crepúsculo civil 6:02 AM MST 7:00 PM MST
Crepúsculo náutico 5:35 AM MST 7:27 PM MST
Crepúsculo astronómico 5:07 AM MST 7:55 PM MST
Luna 1:48 AM MST (3/21) 12:41 PM MST (3/21)
Horas de luz 12h 57m
Horas de luz
12h 09m
Cuarto menguante, 39% of the Moon is Illuminated
Mar 21
Cuarto menguante
Mar 27
Nueva
Abr 3
Cuarto creciente
Abr 11
Luna llena
Abr 19
Cuarto menguante

Hourly Weather History & Observations

Hora (MST) Temp. Punto de rocío Humedad Presión Visibilidad Wind Dir Velocidad del viento Velocidad de ráfagas Precip Eventos Condiciones
12:41 AM 68.0 ° F 46.4 ° F 46% 30.00 pul 10.0 mi Sin viento Sin viento - N/A   Despejado
1:42 AM 68.0 ° F 46.4 ° F 46% 29.96 pul 10.0 mi Sin viento Sin viento - N/A   Despejado
2:41 AM 69.8 ° F 46.4 ° F 43% 29.98 pul 10.0 mi NE 3.5 mph - N/A   Despejado
3:40 AM 69.8 ° F 46.4 ° F 43% 29.98 pul 10.0 mi Sin viento Sin viento - N/A   Despejado
4:40 AM 65 ° F 46 ° F 39% 29.96 pul 5 mi Este 4.5 mph - -  
4:44 AM 69.8 ° F 46.4 ° F 43% 29.94 pul 10.0 mi Este 4.6 mph - N/A   Despejado
5:49 AM 68.0 ° F 46.4 ° F 46% 29.99 pul 10.0 mi Este 3.5 mph - N/A   Despejado
6:41 AM 68.0 ° F 46.4 ° F 46% 30.00 pul 10.0 mi Sin viento Sin viento - N/A   Despejado
7:44 AM 75.2 ° F 48.2 ° F 38% 29.99 pul 10.0 mi Sin viento Sin viento - N/A   Despejado
8:42 AM 78.8 ° F 48.2 ° F 34% 30.04 pul 10.0 mi SE 4.6 mph - N/A   Despejado
9:41 AM 82.4 ° F 48.2 ° F 30% 30.04 pul 10.0 mi SSE 6.9 mph - N/A   Despejado
10:40 AM 86 ° F 51 ° F 20% 30.01 pul 7 mi Este 2.2 mph - -  
10:49 AM 87.8 ° F 48.2 ° F 25% 29.99 pul 10.0 mi Sin viento Sin viento - N/A   Despejado
11:50 AM 89.6 ° F 46.4 ° F 22% 30.01 pul 10.0 mi SSE 4.6 mph - N/A   Despejado
12:50 PM 91.4 ° F 48.2 ° F 23% 29.98 pul 10.0 mi Sur 6.9 mph - N/A   Despejado
1:40 PM 95.0 ° F 44.6 ° F 18% 29.92 pul 10.0 mi OSO 6.9 mph - N/A   Despejado
1:45 PM 95 ° F 49 ° F 12% 29.91 pul 7 mi Oeste 2.2 mph - -  
2:40 PM 95.0 ° F 46.4 ° F 19% 29.94 pul 10.0 mi SO 8.1 mph - N/A   Despejado
3:40 PM 95.0 ° F 42.8 ° F 16% 29.92 pul 10.0 mi OSO 11.5 mph - N/A   Despejado
4:40 PM 93.2 ° F 48.2 ° F 21% 29.89 pul 10.0 mi Oeste 13.8 mph - N/A   Despejado
4:41 PM 95 ° F 52 ° F 14% 29.87 pul 7 mi SO 2.2 mph - -  
5:40 PM 91.4 ° F 44.6 ° F 20% 29.92 pul 10.0 mi OSO 11.5 mph - N/A   Despejado
6:40 PM 84.2 ° F 46.4 ° F 27% 29.93 pul 10.0 mi OSO 9.2 mph - N/A   Despejado
7:40 PM 82 ° F 47 ° F 19% 29.91 pul 5 mi OSO 6.7 mph - -  
7:41 PM 80.6 ° F 46.4 ° F 30% 29.93 pul 10.0 mi SO 6.9 mph - N/A   Despejado
8:53 PM 77.0 ° F 46.4 ° F 34% 29.97 pul 10.0 mi SSO 4.6 mph - N/A   Despejado
9:40 PM 75.2 ° F 46.4 ° F 36% 29.97 pul 10.0 mi Sin viento Sin viento - N/A   Despejado
10:40 PM 73 ° F 49 ° F 32% 29.93 pul 5 mi OSO 2.2 mph - -  
11:40 PM 68.0 ° F 46.4 ° F 46% 29.97 pul 10.0 mi Sin viento Sin viento - N/A   Despejado